FFT204 KPHL-KCLE

Flight info

Callsign FFT204
Flight time 1h 2m
Altitude 36000
Route PTW SARAA RAV PSB UPPRR TRYBE4
Aircraft A320/M-SDE3FGHIRWY/LB1

Departure

Time 2026-05-05 02:16
Airport Philadelphia International Airport (KPHL)

Arrival

Time 2026-05-05 03:19
Airport Cleveland Hopkins International Airport (KCLE)
Time Latitude Longitude Altitude Speed Heading
2026-05-05 01:30 39.87759 -75.23795 23 ft 0 kts 30°
2026-05-05 02:00 39.87744 -75.23807 22 ft 4 kts 40°
2026-05-05 02:00 39.87727 -75.23833 23 ft 4 kts 66°
2026-05-05 02:00 39.87723 -75.23864 22 ft 4 kts 108°
2026-05-05 02:00 39.87727 -75.23877 22 ft 0 kts 123°
2026-05-05 02:08 39.87715 -75.23854 24 ft 13 kts 123°
2026-05-05 02:08 39.87666 -75.23755 22 ft 4 kts 123°
2026-05-05 02:09 39.87652 -75.23727 23 ft 3 kts 123°
2026-05-05 02:09 39.87634 -75.23687 25 ft 13 kts 120°
2026-05-05 02:09 39.87548 -75.23607 23 ft 14 kts 181°
2026-05-05 02:09 39.87473 -75.23672 22 ft 4 kts 224°
2026-05-05 02:10 39.87438 -75.23707 23 ft 16 kts 207°
2026-05-05 02:10 39.87340 -75.23727 24 ft 13 kts 181°
2026-05-05 02:10 39.87225 -75.23697 22 ft 26 kts 167°
2026-05-05 02:10 39.87127 -75.23658 24 ft 7 kts 161°
2026-05-05 02:11 39.87067 -75.23639 22 ft 11 kts 166°
2026-05-05 02:11 39.87058 -75.23636 22 ft 0 kts 166°
2026-05-05 02:11 39.87039 -75.23630 22 ft 0 kts 166°
2026-05-05 02:12 39.87026 -75.23626 22 ft 9 kts 166°
2026-05-05 02:12 39.86992 -75.23590 22 ft 0 kts 115°
2026-05-05 02:13 39.86993 -75.23538 22 ft 13 kts 82°
2026-05-05 02:13 39.86996 -75.23438 23 ft 7 kts 116°
2026-05-05 02:13 39.86990 -75.23430 21 ft 0 kts 139°
2026-05-05 02:14 39.86984 -75.23425 23 ft 8 kts 148°
2026-05-05 02:14 39.86904 -75.23422 22 ft 12 kts 226°
2026-05-05 02:14 39.86887 -75.23473 22 ft 0 kts 257°
2026-05-05 02:15 39.86863 -75.23606 22 ft 48 kts 256°
2026-05-05 02:16 39.86711 -75.24343 23 ft 115 kts 255°
2026-05-05 02:16 39.86459 -75.25578 35 ft 164 kts 253°
2026-05-05 02:16 39.86162 -75.27021 628 ft 166 kts 253°
2026-05-05 02:16 39.85877 -75.28501 1292 ft 171 kts 253°
2026-05-05 02:17 39.85602 -75.30021 1980 ft 174 kts 254°
2026-05-05 02:17 39.85343 -75.31570 2697 ft 176 kts 254°
2026-05-05 02:17 39.85104 -75.33133 3447 ft 176 kts 255°
2026-05-05 02:17 39.84887 -75.34703 4196 ft 176 kts 256°
2026-05-05 02:18 39.84697 -75.36266 4934 ft 174 kts 257°
2026-05-05 02:18 39.84490 -75.37833 5382 ft 188 kts 254°
2026-05-05 02:18 39.84131 -75.39635 5372 ft 225 kts 253°
2026-05-05 02:18 39.84088 -75.41810 5617 ft 257 kts 283°
2026-05-05 02:19 39.85083 -75.43804 6423 ft 276 kts 316°
2026-05-05 02:19 39.86827 -75.44947 7366 ft 286 kts 336°
2026-05-05 02:19 39.88755 -75.45673 8351 ft 290 kts 341°
2026-05-05 02:19 39.90729 -75.46248 9303 ft 292 kts 343°
2026-05-05 02:20 39.92725 -75.46794 10229 ft 295 kts 343°
2026-05-05 02:20 39.94799 -75.47372 10643 ft 316 kts 343°
2026-05-05 02:20 39.96989 -75.48009 11237 ft 326 kts 343°
2026-05-05 02:20 39.99212 -75.48682 12025 ft 329 kts 343°
2026-05-05 02:21 40.01447 -75.49378 12715 ft 331 kts 343°
2026-05-05 02:21 40.03684 -75.50087 12953 ft 331 kts 342°
2026-05-05 02:21 40.05919 -75.50799 13011 ft 330 kts 342°
2026-05-05 02:21 40.08144 -75.51510 13024 ft 329 kts 342°
2026-05-05 02:22 40.10381 -75.52225 13338 ft 333 kts 342°
2026-05-05 02:22 40.12631 -75.52951 14110 ft 334 kts 342°
2026-05-05 02:22 40.14899 -75.53682 14802 ft 338 kts 342°
2026-05-05 02:22 40.17193 -75.54421 15467 ft 341 kts 342°
2026-05-05 02:23 40.19507 -75.55188 15888 ft 343 kts 338°
2026-05-05 02:23 40.21678 -75.56402 15997 ft 337 kts 326°
2026-05-05 02:23 40.23565 -75.58176 16017 ft 332 kts 314°
2026-05-05 02:23 40.25134 -75.60388 16284 ft 334 kts 308°
2026-05-05 02:24 40.26652 -75.62695 16986 ft 335 kts 308°
2026-05-05 02:24 40.28188 -75.65011 17636 ft 338 kts 308°
2026-05-05 02:24 40.29739 -75.67340 18248 ft 341 kts 308°
2026-05-05 02:24 40.31304 -75.69684 18854 ft 343 kts 308°
2026-05-05 02:25 40.32882 -75.72053 19447 ft 346 kts 308°
2026-05-05 02:25 40.34469 -75.74443 20034 ft 349 kts 308°
2026-05-05 02:25 40.36064 -75.76856 20609 ft 351 kts 308°
2026-05-05 02:25 40.37648 -75.79260 21154 ft 354 kts 308°
2026-05-05 02:26 40.39263 -75.81714 21697 ft 357 kts 309°
2026-05-05 02:26 40.40895 -75.84184 22238 ft 359 kts 309°
2026-05-05 02:26 40.42501 -75.86708 22745 ft 361 kts 304°
2026-05-05 02:26 40.43768 -75.89556 23264 ft 363 kts 294°
2026-05-05 02:27 40.44580 -75.92696 23772 ft 366 kts 283°
2026-05-05 02:27 40.45108 -75.95977 24246 ft 368 kts 283°
2026-05-05 02:27 40.45643 -75.99276 24685 ft 371 kts 283°
2026-05-05 02:27 40.46186 -76.02602 24870 ft 373 kts 283°
2026-05-05 02:28 40.46731 -76.05942 24905 ft 374 kts 283°
2026-05-05 02:28 40.47275 -76.09278 24906 ft 374 kts 283°
2026-05-05 02:28 40.47813 -76.12620 24913 ft 374 kts 283°
2026-05-05 02:28 40.48351 -76.15965 24916 ft 374 kts 283°
2026-05-05 02:29 40.48888 -76.19307 24915 ft 374 kts 283°
2026-05-05 02:29 40.49426 -76.22652 24911 ft 374 kts 283°
2026-05-05 02:29 40.49960 -76.25992 24907 ft 374 kts 283°
2026-05-05 02:29 40.50493 -76.29337 24906 ft 374 kts 283°
2026-05-05 02:30 40.51026 -76.32681 24907 ft 374 kts 283°
2026-05-05 02:30 40.51559 -76.36023 24904 ft 374 kts 283°
2026-05-05 02:30 40.51912 -76.38235 24906 ft 374 kts 283°
2026-05-05 02:30 40.52624 -76.42706 24900 ft 374 kts 283°
2026-05-05 02:31 40.52976 -76.44924 24896 ft 374 kts 283°
2026-05-05 02:31 40.53505 -76.48274 24896 ft 374 kts 283°
2026-05-05 02:31 40.54032 -76.51624 24898 ft 374 kts 282°
2026-05-05 02:31 40.54559 -76.54968 24896 ft 374 kts 282°
2026-05-05 02:32 40.55086 -76.58315 24945 ft 375 kts 283°
2026-05-05 02:32 40.55790 -76.61623 25385 ft 378 kts 290°
2026-05-05 02:32 40.56668 -76.64895 25822 ft 380 kts 290°
2026-05-05 02:32 40.57551 -76.68192 26222 ft 383 kts 290°
2026-05-05 02:33 40.58437 -76.71506 26609 ft 386 kts 290°
2026-05-05 02:33 40.59328 -76.74848 26975 ft 388 kts 290°
2026-05-05 02:33 40.60223 -76.78216 27340 ft 391 kts 290°
2026-05-05 02:33 40.61123 -76.81603 27691 ft 394 kts 290°
2026-05-05 02:34 40.62028 -76.85012 28026 ft 396 kts 289°
2026-05-05 02:34 40.62940 -76.88453 28357 ft 399 kts 289°
2026-05-05 02:34 40.63857 -76.91910 28700 ft 401 kts 290°
2026-05-05 02:34 40.64776 -76.95391 29013 ft 404 kts 289°
2026-05-05 02:35 40.65702 -76.98894 29327 ft 406 kts 289°
2026-05-05 02:35 40.66631 -77.02415 29633 ft 408 kts 289°
2026-05-05 02:35 40.67561 -77.05953 29935 ft 410 kts 289°
2026-05-05 02:35 40.68494 -77.09508 30226 ft 412 kts 289°
2026-05-05 02:36 40.69429 -77.13082 30515 ft 413 kts 289°
2026-05-05 02:36 40.70367 -77.16665 30787 ft 415 kts 289°
2026-05-05 02:36 40.71309 -77.20267 31048 ft 416 kts 289°
2026-05-05 02:36 40.72252 -77.23881 31323 ft 417 kts 289°
2026-05-05 02:37 40.73194 -77.27496 31672 ft 416 kts 290°
2026-05-05 02:37 40.74133 -77.31097 32036 ft 415 kts 290°
2026-05-05 02:37 40.75070 -77.34687 32403 ft 413 kts 290°
2026-05-05 02:37 40.76004 -77.38265 32752 ft 412 kts 290°
2026-05-05 02:38 40.76930 -77.41833 33089 ft 411 kts 290°
2026-05-05 02:38 40.77851 -77.45394 33436 ft 410 kts 290°
2026-05-05 02:38 40.78769 -77.48946 33789 ft 408 kts 290°
2026-05-05 02:38 40.79683 -77.52485 34130 ft 407 kts 290°
2026-05-05 02:39 40.80595 -77.56016 34450 ft 406 kts 290°
2026-05-05 02:39 40.81503 -77.59535 34755 ft 405 kts 290°
2026-05-05 02:39 40.82406 -77.63054 35041 ft 404 kts 289°
2026-05-05 02:39 40.83304 -77.66565 35311 ft 404 kts 289°
2026-05-05 02:40 40.84202 -77.70074 35567 ft 403 kts 289°
2026-05-05 02:40 40.85099 -77.73581 35793 ft 403 kts 289°
2026-05-05 02:40 40.85996 -77.77087 35855 ft 400 kts 289°
2026-05-05 02:41 40.87758 -77.84013 35881 ft 396 kts 289°
2026-05-05 02:41 40.89509 -77.90911 35880 ft 396 kts 289°
2026-05-05 02:42 40.91243 -77.97764 35874 ft 396 kts 289°
2026-05-05 02:42 40.92538 -78.04837 35881 ft 396 kts 283°
2026-05-05 02:43 40.93690 -78.11955 35880 ft 396 kts 283°
2026-05-05 02:43 40.94833 -78.19075 35883 ft 396 kts 283°
2026-05-05 02:44 40.95978 -78.26196 35883 ft 395 kts 283°
2026-05-05 02:44 40.97122 -78.33311 35882 ft 395 kts 283°
2026-05-05 02:45 40.98255 -78.40422 35880 ft 395 kts 283°
2026-05-05 02:45 40.99382 -78.47546 35880 ft 395 kts 283°
2026-05-05 02:46 41.00499 -78.54652 35868 ft 394 kts 282°
2026-05-05 02:46 41.01613 -78.61762 35875 ft 394 kts 283°
2026-05-05 02:47 41.02725 -78.68867 35863 ft 394 kts 282°
2026-05-05 02:47 41.03836 -78.75976 35863 ft 394 kts 282°
2026-05-05 02:48 41.04941 -78.83079 35868 ft 394 kts 282°
2026-05-05 02:48 41.06042 -78.90191 35856 ft 394 kts 282°
2026-05-05 02:49 41.07136 -78.97302 35860 ft 394 kts 282°
2026-05-05 02:49 41.08226 -79.04406 35847 ft 393 kts 282°
2026-05-05 02:50 41.09310 -79.11505 35850 ft 393 kts 282°
2026-05-05 02:50 41.10386 -79.18574 35754 ft 396 kts 282°
2026-05-05 02:50 41.10924 -79.22147 35499 ft 394 kts 282°
2026-05-05 02:51 41.11457 -79.25699 35249 ft 392 kts 282°
2026-05-05 02:51 41.11989 -79.29242 34997 ft 391 kts 282°
2026-05-05 02:51 41.12521 -79.32763 34747 ft 389 kts 282°
2026-05-05 02:51 41.13050 -79.36272 34498 ft 387 kts 282°
2026-05-05 02:52 41.13572 -79.39767 34247 ft 386 kts 282°
2026-05-05 02:52 41.14093 -79.43256 33997 ft 384 kts 282°
2026-05-05 02:52 41.14612 -79.46724 33744 ft 383 kts 282°
2026-05-05 02:52 41.15128 -79.50178 33496 ft 381 kts 282°
2026-05-05 02:53 41.15638 -79.53619 33235 ft 378 kts 282°
2026-05-05 02:53 41.16139 -79.57018 32819 ft 374 kts 282°
2026-05-05 02:53 41.16636 -79.60390 32370 ft 370 kts 282°
2026-05-05 02:53 41.17128 -79.63732 31922 ft 367 kts 281°
2026-05-05 02:54 41.17618 -79.67043 31484 ft 364 kts 281°
2026-05-05 02:54 41.18104 -79.70327 31049 ft 361 kts 281°
2026-05-05 02:54 41.18584 -79.73584 30621 ft 358 kts 281°
2026-05-05 02:54 41.19058 -79.76816 30210 ft 355 kts 281°
2026-05-05 02:55 41.19527 -79.80018 29798 ft 352 kts 281°
2026-05-05 02:55 41.19991 -79.83186 29409 ft 348 kts 280°
2026-05-05 02:55 41.20448 -79.86325 29011 ft 345 kts 280°
2026-05-05 02:55 41.20900 -79.89451 28626 ft 342 kts 280°
2026-05-05 02:56 41.21345 -79.92536 28253 ft 338 kts 280°
2026-05-05 02:56 41.21784 -79.95578 27887 ft 334 kts 280°
2026-05-05 02:56 41.22217 -79.98586 27516 ft 330 kts 280°
2026-05-05 02:56 41.22647 -80.01566 27142 ft 326 kts 280°
2026-05-05 02:57 41.23069 -80.04497 26775 ft 322 kts 280°
2026-05-05 02:57 41.23485 -80.07400 26407 ft 317 kts 280°
2026-05-05 02:57 41.23891 -80.10224 26027 ft 307 kts 280°
2026-05-05 02:57 41.24299 -80.13018 25650 ft 308 kts 282°
2026-05-05 02:58 41.24959 -80.15719 25231 ft 307 kts 290°
2026-05-05 02:58 41.25757 -80.18346 24817 ft 306 kts 290°
2026-05-05 02:58 41.26546 -80.20960 24394 ft 304 kts 290°
2026-05-05 02:58 41.27331 -80.23566 23973 ft 304 kts 290°
2026-05-05 02:59 41.28114 -80.26172 23530 ft 303 kts 290°
2026-05-05 02:59 41.28892 -80.28770 23110 ft 302 kts 290°
2026-05-05 02:59 41.29665 -80.31354 22691 ft 301 kts 289°
2026-05-05 02:59 41.30436 -80.33933 22279 ft 300 kts 289°
2026-05-05 03:00 41.31204 -80.36506 21868 ft 299 kts 289°
2026-05-05 03:00 41.31968 -80.39069 21464 ft 298 kts 289°
2026-05-05 03:00 41.32728 -80.41622 21054 ft 297 kts 289°
2026-05-05 03:00 41.33486 -80.44173 20651 ft 296 kts 289°
2026-05-05 03:01 41.34240 -80.46715 20265 ft 295 kts 289°
2026-05-05 03:01 41.34982 -80.49212 19880 ft 294 kts 289°
2026-05-05 03:01 41.35734 -80.51738 19490 ft 293 kts 289°
2026-05-05 03:01 41.36481 -80.54253 19100 ft 292 kts 289°
2026-05-05 03:02 41.37227 -80.56762 18703 ft 291 kts 289°
2026-05-05 03:02 41.37969 -80.59260 18329 ft 290 kts 289°
2026-05-05 03:02 41.38707 -80.61751 17952 ft 289 kts 289°
2026-05-05 03:02 41.39441 -80.64230 17581 ft 287 kts 289°
2026-05-05 03:03 41.40163 -80.66670 17408 ft 279 kts 288°
2026-05-05 03:03 41.40869 -80.69062 17102 ft 276 kts 288°
2026-05-05 03:03 41.41567 -80.71440 16760 ft 275 kts 288°
2026-05-05 03:03 41.42257 -80.73806 16411 ft 274 kts 288°
2026-05-05 03:04 41.42948 -80.76176 16106 ft 277 kts 288°
2026-05-05 03:04 41.43658 -80.78608 16029 ft 284 kts 288°
2026-05-05 03:04 41.44377 -80.81061 15416 ft 284 kts 288°
2026-05-05 03:04 41.45086 -80.83476 15015 ft 274 kts 288°
2026-05-05 03:05 41.45762 -80.85786 14679 ft 262 kts 287°
2026-05-05 03:05 41.46419 -80.88044 14352 ft 261 kts 287°
2026-05-05 03:05 41.47073 -80.90293 14035 ft 259 kts 287°
2026-05-05 03:05 41.47721 -80.92530 13708 ft 259 kts 287°
2026-05-05 03:06 41.48368 -80.94763 13386 ft 257 kts 287°
2026-05-05 03:06 41.49014 -80.96986 13061 ft 256 kts 287°
2026-05-05 03:06 41.49650 -80.99167 12732 ft 255 kts 287°
2026-05-05 03:06 41.50291 -81.01368 12406 ft 254 kts 287°
2026-05-05 03:07 41.50926 -81.03556 12086 ft 252 kts 285°
2026-05-05 03:07 41.51384 -81.05792 11760 ft 248 kts 276°
2026-05-05 03:07 41.51530 -81.08058 11439 ft 244 kts 267°
2026-05-05 03:07 41.51447 -81.10311 11122 ft 243 kts 265°
2026-05-05 03:08 41.51351 -81.12556 10797 ft 242 kts 265°
2026-05-05 03:08 41.51255 -81.14779 10469 ft 239 kts 264°
2026-05-05 03:08 41.51163 -81.16985 10141 ft 237 kts 265°
2026-05-05 03:08 41.51072 -81.19168 9823 ft 235 kts 265°
2026-05-05 03:09 41.50982 -81.21326 9501 ft 232 kts 265°
2026-05-05 03:09 41.50891 -81.23469 9181 ft 231 kts 264°
2026-05-05 03:09 41.50801 -81.25595 8855 ft 229 kts 265°
2026-05-05 03:09 41.50712 -81.27708 8504 ft 227 kts 265°
2026-05-05 03:10 41.50623 -81.29797 8170 ft 224 kts 264°
2026-05-05 03:10 41.50533 -81.31858 7831 ft 222 kts 264°
2026-05-05 03:10 41.50444 -81.33904 7505 ft 219 kts 264°
2026-05-05 03:10 41.50357 -81.35924 7175 ft 217 kts 264°
2026-05-05 03:11 41.50270 -81.37927 6840 ft 216 kts 264°
2026-05-05 03:11 41.50184 -81.39912 6491 ft 213 kts 264°
2026-05-05 03:11 41.50093 -81.41881 6147 ft 211 kts 264°
2026-05-05 03:11 41.50090 -81.43817 5895 ft 207 kts 269°
2026-05-05 03:12 41.50144 -81.45818 5735 ft 221 kts 269°
2026-05-05 03:12 41.50193 -81.47877 5572 ft 221 kts 268°
2026-05-05 03:12 41.50240 -81.49870 5439 ft 209 kts 268°
2026-05-05 03:12 41.50285 -81.51760 5319 ft 199 kts 268°
2026-05-05 03:13 41.50327 -81.53585 5227 ft 195 kts 268°
2026-05-05 03:13 41.50367 -81.55392 5133 ft 194 kts 268°
2026-05-05 03:13 41.50406 -81.57198 5042 ft 195 kts 268°
2026-05-05 03:13 41.50445 -81.59017 4879 ft 197 kts 268°
2026-05-05 03:14 41.50483 -81.60809 4646 ft 195 kts 268°
2026-05-05 03:14 41.50522 -81.62622 4424 ft 196 kts 268°
2026-05-05 03:14 41.50560 -81.64439 4199 ft 196 kts 268°
2026-05-05 03:14 41.50537 -81.66246 3976 ft 194 kts 257°
2026-05-05 03:15 41.50156 -81.67968 3735 ft 193 kts 250°
2026-05-05 03:15 41.49743 -81.69680 3496 ft 194 kts 250°
2026-05-05 03:15 41.49333 -81.71400 3248 ft 194 kts 249°
2026-05-05 03:15 41.48895 -81.73103 3006 ft 194 kts 241°
2026-05-05 03:16 41.48086 -81.74543 2765 ft 195 kts 229°
2026-05-05 03:16 41.47227 -81.75890 2529 ft 184 kts 228°
2026-05-05 03:16 41.46438 -81.77139 2278 ft 169 kts 229°
2026-05-05 03:16 41.45720 -81.78275 2057 ft 152 kts 228°
2026-05-05 03:17 41.45059 -81.79323 1883 ft 142 kts 227°
2026-05-05 03:17 41.44436 -81.80309 1692 ft 137 kts 227°
2026-05-05 03:17 41.43830 -81.81269 1511 ft 134 kts 227°
2026-05-05 03:17 41.43231 -81.82217 1331 ft 133 kts 228°
2026-05-05 03:18 41.42634 -81.83164 1150 ft 134 kts 228°
2026-05-05 03:18 41.42242 -81.83795 1049 ft 133 kts 228°
2026-05-05 03:18 41.41644 -81.84743 828 ft 133 kts 227°
2026-05-05 03:18 41.41099 -81.85585 783 ft 103 kts 230°
2026-05-05 03:19 41.40590 -81.86256 783 ft 17 kts 179°
2026-05-05 03:19 41.40566 -81.86244 783 ft 0 kts 154°
2026-05-05 03:20 41.40564 -81.86243 783 ft 1 kts 154°
2026-05-05 03:20 41.40561 -81.86241 783 ft 0 kts 154°
2026-05-05 03:20 41.40504 -81.86178 783 ft 12 kts 128°
2026-05-05 03:20 41.40499 -81.86171 783 ft 3 kts 135°
2026-05-05 03:21 41.40379 -81.86044 782 ft 31 kts 141°
2026-05-05 03:21 41.40337 -81.85869 783 ft 21 kts 55°
2026-05-05 03:21 41.40434 -81.85720 783 ft 22 kts 50°
2026-05-05 03:21 41.40535 -81.85559 783 ft 24 kts 48°
2026-05-05 03:22 41.40634 -81.85400 783 ft 22 kts 51°
2026-05-05 03:22 41.40647 -81.85206 783 ft 22 kts 95°
2026-05-05 03:22 41.40637 -81.84994 783 ft 24 kts 93°
2026-05-05 03:22 41.40627 -81.84768 783 ft 25 kts 94°
2026-05-05 03:23 41.40629 -81.84534 783 ft 24 kts 84°
2026-05-05 03:23 41.40738 -81.84424 783 ft 22 kts
2026-05-05 03:23 41.40892 -81.84403 783 ft 23 kts 21°
2026-05-05 03:23 41.40996 -81.84255 783 ft 22 kts 75°
2026-05-05 03:24 41.41027 -81.84097 782 ft 17 kts 77°
2026-05-05 03:24 41.41010 -81.84034 782 ft 5 kts 128°
2026-05-05 03:24 41.40998 -81.84017 782 ft 5 kts 135°
2026-05-05 03:24 41.40973 -81.83984 782 ft 0 kts 137°
2026-05-05 03:25 41.40972 -81.83983 782 ft 0 kts 137°
2026-05-05 03:25 41.40971 -81.83982 782 ft 0 kts 137°
2026-05-05 03:25 41.40970 -81.83980 782 ft 0 kts 137°